Location: Praha
(50.0830°N, 14.4670°E)
Time: 06:28:36
(UTC+02:00)

ISS - Pass Details

Date: 13 July 2024
Orbit: 409 x 423 km, 51.6° (Epoch: 24 July)

Event Time Altitude Azimuth Distance (km) Brightness Sun altitude
Rises 00:37:45 0° 280° (W) 2,339 0.3 -17.8°
Reaches altitude 10° 00:39:50 10° 283° (WNW) 1,478 -0.8 -17.9°
Maximum altitude 00:43:08 69° 7° (N) 445 -3.5 -17.9°
Drops below altitude 10° 00:46:27 10° 92° (E) 1,482 -1.1 -18.0°
Enters shadow 00:47:52 - 94° (E) 2,057 -0.3 -18.0°
